Skip Page Navigation
NASA JPL Caltech
NASA Logo - Jet Propulsion Laboratory + View the NASA Portal
+ Center for Near-Earth Object Studies
JPL Home Earth Solar System Stars & Galaxies Technology
JPL Solar System Dynamics
BODIES ORBITS EPHEMERIDES TOOLS PHYSICAL DATA DISCOVERY FAQ SITE MAP
IMPORTANT: The SSD Announcement email list is now available. Major changes are coming in the near future, including possible hostname and/or URL changes. To be notified of such changes, subscribe to this email list.

Please visit this page for more details.


JPL Small-Body Database Browser
Search: [ help ]  
52466 (1995 OF4)
Classification: Main-belt Asteroid          SPK-ID: 2052466
Ephemeris | Orbit Diagram | Orbital Elements | Mission Design | Physical Parameters | Discovery Circumstances | Close-Approach Data ]

[ show orbit diagram ]
Orbital Elements at Epoch 2459000.5 (2020-May-31.0) TDB
Reference: JPL 22 (heliocentric ecliptic J2000)
 Element Value Uncertainty (1-sigma)   Units 
e .08094031066970828 3.7389e-08  
a 3.074607280262243 2.3062e-08 au
q 2.82574761181047 1.1439e-07 au
i 11.49350894200618 4.7306e-06 deg
node 147.0998774911254 2.3143e-05 deg
peri 289.2004252866108 3.968e-05 deg
M 116.3196956994693 3.3365e-05 deg
tp 2458364.241407707921
(2018-Sep-02.74140771)
0.00018091 TDB
period 1969.168607670226
5.39
2.2156e-05
6.066e-08
d
yr
n .1828182709178597 2.0569e-09 deg/d
Q 3.323466948714015 2.4929e-08 au
  Orbit Determination Parameters
   # obs. used (total)      676  
   data-arc span      9048 days (24.77 yr)  
   first obs. used      1995-07-22  
   last obs. used      2020-04-29  
   planetary ephem.      DE431  
   SB-pert. ephem.      SB431-N16  
   condition code      0  
   norm. resid. RMS      .57555  
   source      ORB  
   producer      Otto Matic  
   solution date      2020-May-20 10:22:55  

Additional Information
 Earth MOID = 1.86744 au 
 Jupiter MOID = 1.88351 au 
 T_jup = 3.194 
[ show covariance matrix ]

Ephemeris | Orbit Diagram | Orbital Elements | Mission Design | Physical Parameters | Discovery Circumstances | Close-Approach Data ]

Physical Parameter Table
Parameter Symbol Value Units Sigma Reference Notes
absolute magnitude H 14.6   n/a MPO432082  

52466 (1995 OF4)          Discovered 1995-Jul-22 by Spacewatch at Kitt Peak
Reference: 20030216/Numbers.arcLast Updated: 2004-04-19

[ show close-approach data ]
Ephemeris | Orbit Diagram | Orbital Elements | Mission Design | Physical Parameters | Discovery Circumstances | Close-Approach Data ]
ABOUT SSD CREDITS/AWARDS PRIVACY/COPYRIGHT GLOSSARY LINKS
FirstGov 2020-Jun-02 21:57 UT
(server date/time)  
NASA Home Page
Site Manager:   Ryan S. Park
Webmaster  Alan B. Chamberlin